Wind_Speed
5 4 2 3 5 4 3 4 5 6 6 8 8 10 10 10 9 8 7 8 8 8 7 6 6 6 7 7 8 7 7 5 3 6 7 5 4 4 6 6 7 8 8 7 6
5 8 5 4 5 6 5 5 6 7 8 9 10 11 12 12 11 11 11 10 9 7 7 7 8 8 8 8 7 8 9 8 8 7 9 7 6 4 5 4 10 7 4 4 2
4 6 8 6 6 5 6 7 9 9 10 11 12 12 11 10 9 9 9 8 7 7 8 7 8 10 11 10 9 8 8 9 10 9 10 9 9 6 6 6 7 7 9 6 7
9 8 8 6 6 10 12 12 11 12 13 12 11 10 9 9 8 9 7 7 6 6 6 5 7 9 10 11 12 12 12 11 9 7 7 8 10 9 7 6 7 6 8 9 6
8 10 12 13 13 14 13 11 11 11 10 9 8 8 8 6 6 5 5 4 3 3 3 4 6 8 11 13 14 14 14 14 12 11 9 7 8 8 8 6 5 5 6 9 9
5 7 9 11 11 11 10 9 9 8 7 6 6 6 5 5 3 2 2 1 0 1 1 3 5 7 10 12 13 15 15 14 14 14 13 11 8 7 7 8 7 8 8 8 9
6 6 7 8 8 7 6 5 4 3 4 3 3 3 4 2 1 2 2 1 2 2 3 4 5 7 9 11 13 13 12 12 14 13 15 13 10 8 8 9 9 12 9 9 7
8 8 8 9 9 8 8 7 6 5 4 4 4 4 3 3 3 4 4 4 3 2 4 7 6 7 9 11 13 14 16 15 13 13 13 12 10 7 9 10 8 9 11 9 10
12 11 11 11 11 11 12 11 11 10 9 8 7 7 6 6 6 6 6 7 6 6 6 8 7 7 9 11 13 15 16 16 17 8 5 7 9 8 10 13 12 10 10 11 12
15 14 14 14 14 14 14 13 13 13 12 11 11 11 10 10 9 7 9 9 10 9 8 10 7 6 8 11 13 15 16 16 10 7 6 7 9 10 8 13 12 10 12 15 13
17 16 16 16 16 17 17 17 16 14 12 11 11 12 11 10 10 10 11 11 11 11 10 10 8 7 8 10 13 15 16 14 10 9 7 10 10 9 9 9 12 13 13 18 17
16 16 17 18 19 20 21 21 21 18 15 13 13 12 12 12 12 12 11 10 8 7 8 9 7 6 9 10 12 14 14 14 10 8 10 10 12 11 10 11 8 7 9 16 18
18 18 19 17 16 17 17 19 20 22 19 16 14 13 12 11 10 10 7 5 4 4 6 6 6 7 8 11 10 11 14 14 10 4 3 5 11 7 8 10 7 5 7 10 19
18 14 11 10 11 11 11 10 10 12 21 19 16 15 13 13 12 10 8 7 6 6 6 6 7 8 12 9 7 8 12 9 4 3 3 5 7 7 10 10 8 6 7 9 9
11 11 10 11 12 12 11 10 9 10 18 18 20 20 16 13 13 12 12 11 10 9 10 9 9 10 9 3 4 6 8 3 7 3 3 9 11 10 12 13 10 7 8 8 9
10 11 12 13 13 12 10 10 10 12 18 18 20 18 14 14 15 16 13 11 11 10 10 10 7 9 4 4 6 9 9 9 8 4 5 6 7 8 11 15 14 8 10 8 3
10 11 11 12 11 10 10 10 11 15 12 14 13 10 7 6 7 8 8 7 6 6 8 8 9 11 8 7 7 11 11 8 8 7 3 2 4 6 9 15 14 8 10 9 7
10 10 10 10 10 11 11 10 11 10 7 5 9 5 4 5 7 7 7 7 8 8 7 7 12 15 12 9 8 11 14 12 10 10 8 6 3 6 6 11 11 12 11 11 10
7 8 9 9 10 11 10 11 10 9 10 8 6 2 0 3 5 6 7 8 9 8 8 7 13 15 15 14 11 10 13 13 9 16 13 10 6 7 10 12 14 14 12 13 12
8 8 9 9 9 9 9 9 11 10 9 8 7 5 5 4 5 5 7 6 8 8 5 6 6 14 19 16 12 12 10 9 8 11 16 15 11 10 5 11 11 15 14 13 12
9 9 8 8 6 6 7 8 10 13 13 8 8 8 6 4 7 7 9 10 12 13 14 15 12 9 16 17 15 14 14 13 14 15 15 13 6 9 10 8 9 9 14 10 9
10 9 8 7 5 3 5 6 8 10 9 8 6 6 8 8 9 10 11 12 13 14 16 15 12 12 19 20 23 21 18 18 19 20 20 20 15 9 7 7 5 7 9 13 13
12 10 9 8 7 5 7 6 8 9 8 8 8 8 8 9 10 10 11 12 12 13 15 16 16 17 17 19 22 17 20 20 20 21 21 23 21 15 12 12 10 10 8 11 18
13 12 11 9 10 11 10 10 10 11 11 11 11 11 11 11 11 12 13 14 15 17 18 20 18 19 19 19 22 21 20 19 20 23 26 25 23 21 19 18 20 16 14 11 14
13 13 12 12 12 13 12 14 14 15 14 14 14 15 15 14 14 14 14 16 18 21 22 23 24 24 21 20 21 24 26 26 27 26 26 28 28 28 26 25 26 22 16 12 12
13 14 13 13 14 15 15 14 15 15 16 16 17 15 15 17 18 19 18 19 20 24 23 20 22 24 23 22 23 23 26 27 28 29 30 30 29 27 28 25 24 23 24 21 16
15 15 15 16 16 17 18 17 18 19 19 19 19 18 18 18 18 20 20 22 22 23 27 24 20 22 19 24 27 25 24 26 27 26 28 30 28 24 26 27 24 22 26 27 26
Wind_Direction
227 208 172 161 173 154 132 118 126 138 143 134 129 130 137 147 157 163 141 121 118 113 115 97 82 58 43 28 19 6 354 348 315 274 274 251 268 303 310 269 259 297 291 273 268
240 216 194 156 152 164 160 136 127 131 135 137 132 127 128 129 129 124 117 119 121 109 94 87 73 59 40 35 19 6 358 332 303 272 243 244 245 277 294 266 268 269 262 225 268
84 161 170 162 149 145 145 137 129 133 131 127 125 125 126 125 123 114 117 115 109 105 93 73 57 45 35 23 18 7 354 349 326 301 256 245 241 252 271 277 280 309 228 297 257
83 114 143 150 143 129 126 123 118 123 127 124 122 123 124 125 122 113 115 113 111 97 89 73 47 32 24 21 14 7 2 345 327 325 300 265 249 243 256 271 278 276 246 263 282
102 106 113 118 119 120 120 118 116 120 125 125 125 127 131 126 126 120 115 116 113 96 71 39 28 20 21 21 13 7 0 344 333 320 307 292 265 252 248 241 240 256 275 282 287
139 130 126 128 127 126 123 119 115 113 115 118 122 129 139 147 149 140 122 106 55 10 5 6 353 3 9 13 10 5 355 348 338 331 320 314 297 261 231 218 239 226 228 254 280
195 181 170 163 160 159 158 159 152 144 140 129 138 160 168 185 244 273 280 290 323 328 314 313 327 344 350 358 359 0 352 343 338 330 324 332 324 278 238 228 236 251 260 257 252
225 220 213 206 206 211 218 227 235 238 241 245 240 231 198 205 240 267 275 278 294 302 300 294 301 327 342 350 350 345 348 342 347 344 333 327 315 291 232 237 244 261 268 256 250
235 238 237 235 231 229 233 239 245 248 252 253 250 256 247 242 241 261 277 277 279 285 283 283 290 322 331 340 336 338 343 337 350 16 346 326 306 282 224 230 232 239 258 262 252
240 244 245 246 247 246 247 247 249 250 249 247 247 252 252 251 253 265 275 282 285 287 284 285 283 295 315 331 334 337 335 336 343 320 299 295 303 301 264 234 230 236 239 254 246
242 244 245 245 245 246 245 244 246 244 243 242 238 240 241 251 261 265 268 270 271 273 278 278 267 279 318 325 327 334 339 329 318 311 305 298 289 279 266 258 236 240 237 249 246
239 248 256 258 256 252 247 243 240 240 237 236 238 239 244 253 262 261 258 260 264 271 273 264 252 291 312 320 328 333 330 311 302 287 279 284 280 291 297 293 303 313 308 250 246
256 261 265 260 251 246 244 244 241 235 233 233 238 242 245 246 248 242 235 244 270 277 260 254 268 297 300 312 327 326 328 317 326 322 282 263 290 328 321 310 309 306 344 270 262
262 252 234 231 232 233 232 234 230 223 220 226 232 235 232 228 234 240 249 256 265 275 266 262 277 286 299 312 333 325 329 326 84 103 140 94 75 15 3 11 359 330 323 327 268
228 228 230 232 234 234 236 231 224 213 205 213 225 239 238 239 246 250 255 261 263 268 272 281 287 285 282 283 320 315 313 260 185 48 117 63 37 27 7 352 345 350 332 323 291
227 230 236 239 235 232 229 221 213 200 194 210 222 237 245 251 251 252 254 250 249 255 268 271 254 250 226 247 271 299 300 294 209 177 136 40 28 35 33 18 354 345 333 332 302
237 234 226 220 219 219 214 208 202 198 207 223 232 246 245 240 227 225 232 230 241 263 255 249 215 196 178 226 285 313 313 314 214 172 203 219 9 12 24 8 14 3 348 338 320
225 212 209 212 215 213 209 200 199 207 208 234 236 267 270 221 213 218 220 214 225 234 243 239 192 203 225 247 268 271 305 299 223 201 228 249 319 351 355 352 6 10 352 342 335
199 200 208 218 218 217 210 206 204 204 202 216 236 241 156 187 221 230 227 228 243 272 256 239 222 227 239 249 260 276 299 315 249 228 230 243 253 304 330 347 352 357 352 355 341
195 190 194 199 216 216 212 210 205 194 186 205 229 234 188 190 192 221 237 251 274 296 292 287 274 260 246 258 252 272 296 294 301 256 261 269 257 244 327 350 13 13 2 351 352
193 187 188 188 202 213 208 194 185 178 185 173 197 215 227 231 214 235 257 250 265 267 273 273 263 230 233 250 261 257 272 271 282 284 294 297 263 253 272 329 333 356 341 354 4
196 191 188 188 192 164 157 167 187 192 198 197 202 218 215 222 229 231 229 239 242 248 260 268 253 218 235 249 254 266 266 268 271 277 287 293 301 281 283 296 327 340 318 340 334
204 200 197 193 176 164 152 163 191 201 205 220 231 237 246 253 261 268 276 279 270 266 265 269 265 256 242 250 255 264 261 266 276 273 275 282 293 292 284 290 300 315 300 317 331
208 210 214 213 206 195 192 188 200 212 218 227 238 243 245 248 258 272 282 284 282 280 282 284 282 278 275 263 264 269 265 268 273 281 287 286 292 294 289 287 288 301 307 280 297
208 210 217 225 227 236 228 214 210 217 223 224 226 236 244 253 262 268 278 282 285 286 282 279 284 287 287 284 276 270 268 267 266 268 271 272 271 278 282 276 279 284 287 285 297
222 220 219 223 229 237 244 244 239 232 236 237 239 248 262 264 264 260 273 283 288 286 286 291 293 290 290 286 280 278 277 273 267 267 269 271 274 276 271 269 268 270 274 269 285
236 238 237 234 236 238 243 247 246 247 248 251 254 259 265 267 268 267 269 277 281 280 279 286 287 289 297 286 283 281 283 281 276 272 267 267 267 274 274 273 273 267 262 262 262
Height
5887 5888 5888 5889 5890 5891 5891 5892 5893 5894 5894 5895 5896 5897 5898 5900 5901 5903 5905 5908 5909 5910 5912 5913 5914 5914 5914 5914 5914 5914 5915 5915 5915 5914 5914 5913 5912 5912 5911 5909 5908 5908 5907 5907 5907
5885 5886 5888 5889 5890 5891 5892 5893 5893 5894 5895 5896 5897 5899 5900 5901 5903 5905 5907 5908 5909 5911 5912 5913 5914 5914 5914 5914 5914 5914 5913 5913 5913 5912 5913 5912 5911 5911 5910 5909 5907 5907 5907 5907 5907
5885 5885 5887 5889 5890 5891 5892 5893 5894 5895 5896 5898 5899 5901 5902 5903 5905 5907 5908 5909 5910 5911 5912 5913 5914 5914 5914 5914 5913 5912 5912 5911 5911 5911 5911 5911 5910 5910 5909 5909 5907 5906 5906 5906 5905
5887 5887 5888 5889 5890 5891 5892 5894 5895 5896 5898 5900 5901 5902 5904 5905 5908 5908 5909 5910 5911 5912 5912 5913 5914 5914 5914 5914 5912 5912 5911 5910 5910 5909 5910 5910 5909 5909 5908 5908 5907 5906 5905 5905 5903
5889 5889 5889 5890 5891 5893 5894 5895 5897 5898 5900 5901 5902 5904 5905 5906 5907 5908 5910 5910 5911 5912 5913 5913 5914 5914 5913 5912 5911 5911 5910 5910 5909 5907 5907 5907 5907 5907 5907 5906 5904 5904 5904 5903 5903
5890 5890 5891 5892 5893 5894 5896 5897 5898 5899 5900 5902 5903 5904 5906 5907 5908 5909 5910 5911 5911 5912 5912 5913 5913 5913 5912 5912 5912 5910 5910 5909 5907 5905 5905 5905 5906 5905 5905 5904 5901 5900 5900 5899 5900
5889 5890 5892 5893 5894 5895 5896 5897 5899 5900 5901 5902 5903 5904 5906 5908 5908 5908 5909 5910 5911 5911 5912 5912 5912 5913 5912 5912 5911 5911 5910 5908 5907 5904 5903 5904 5905 5903 5902 5902 5899 5898 5897 5897 5897
5887 5889 5891 5892 5894 5895 5896 5897 5898 5899 5900 5902 5902 5904 5906 5907 5907 5907 5908 5910 5910 5911 5911 5911 5911 5911 5911 5911 5910 5909 5907 5906 5905 5904 5903 5903 5902 5902 5901 5899 5899 5898 5896 5896 5897
5885 5887 5889 5890 5891 5893 5894 5895 5897 5898 5899 5901 5902 5902 5904 5905 5906 5906 5907 5908 5909 5909 5910 5909 5910 5910 5910 5909 5909 5907 5905 5904 5903 5902 5902 5901 5899 5898 5898 5897 5896 5896 5895 5894 5895
5883 5884 5886 5887 5889 5890 5891 5893 5894 5895 5897 5898 5900 5902 5902 5903 5904 5905 5905 5906 5906 5907 5908 5908 5908 5909 5909 5908 5908 5906 5905 5904 5903 5902 5900 5899 5898 5896 5895 5894 5893 5893 5893 5891 5891
5879 5881 5882 5884 5885 5886 5888 5889 5892 5893 5894 5896 5897 5897 5899 5901 5902 5903 5902 5903 5904 5905 5905 5905 5907 5907 5907 5907 5906 5904 5904 5903 5902 5901 5901 5899 5897 5894 5891 5891 5890 5890 5890 5889 5889
5876 5877 5878 5879 5881 5881 5883 5884 5886 5889 5891 5892 5893 5895 5896 5897 5899 5899 5901 5902 5902 5902 5903 5904 5904 5905 5905 5905 5904 5903 5903 5900 5901 5900 5900 5898 5895 5892 5890 5890 5889 5889 5889 5887 5886
5872 5873 5874 5874 5875 5876 5877 5879 5881 5884 5887 5890 5890 5892 5894 5896 5896 5897 5898 5899 5900 5900 5900 5901 5903 5902 5902 5903 5902 5901 5900 5899 5899 5898 5898 5896 5893 5891 5889 5887 5887 5887 5886 5885 5884
5868 5868 5870 5871 5873 5872 5874 5876 5877 5879 5883 5887 5888 5889 5891 5893 5894 5895 5896 5898 5898 5898 5899 5900 5900 5900 5900 5900 5900 5899 5898 5898 5897 5898 5896 5894 5893 5891 5889 5887 5886 5885 5883 5881 5881
5864 5865 5867 5868 5869 5870 5873 5874 5875 5877 5880 5884 5884 5885 5888 5891 5892 5893 5894 5894 5895 5896 5898 5899 5898 5898 5897 5897 5898 5899 5897 5896 5896 5896 5895 5893 5891 5890 5888 5886 5883 5881 5879 5879 5877
5862 5863 5864 5865 5866 5868 5870 5872 5874 5877 5877 5880 5880 5882 5886 5887 5888 5889 5891 5892 5892 5893 5894 5895 5895 5895 5895 5896 5896 5897 5896 5895 5894 5895 5895 5893 5892 5891 5889 5886 5883 5880 5878 5876 5875
5859 5860 5861 5862 5864 5866 5868 5871 5874 5874 5877 5879 5880 5882 5884 5885 5886 5887 5889 5890 5890 5891 5892 5892 5893 5893 5894 5895 5895 5895 5895 5894 5895 5895 5894 5893 5893 5891 5889 5886 5883 5881 5879 5876 5877
5857 5858 5859 5861 5863 5864 5867 5870 5873 5875 5877 5878 5879 5881 5883 5883 5885 5886 5887 5888 5888 5889 5891 5892 5892 5892 5893 5894 5895 5894 5893 5893 5893 5894 5893 5893 5892 5892 5889 5887 5884 5882 5880 5878 5875
5855 5857 5858 5860 5862 5864 5867 5869 5872 5874 5877 5878 5879 5881 5883 5883 5885 5885 5886 5887 5888 5889 5891 5891 5892 5892 5892 5892 5893 5892 5892 5891 5890 5891 5892 5893 5893 5891 5889 5886 5884 5882 5880 5879 5877
5854 5856 5858 5860 5861 5863 5866 5869 5871 5873 5875 5877 5879 5881 5883 5884 5884 5885 5885 5887 5887 5888 5890 5891 5891 5889 5890 5890 5890 5890 5891 5890 5889 5890 5890 5890 5891 5890 5889 5887 5884 5881 5880 5877 5876
5853 5855 5857 5859 5860 5863 5865 5867 5870 5872 5875 5877 5879 5880 5882 5883 5884 5884 5885 5886 5886 5887 5887 5887 5888 5889 5888 5887 5887 5887 5888 5888 5887 5887 5887 5887 5889 5888 5888 5887 5885 5882 5879 5877 5875
5852 5854 5856 5858 5860 5862 5864 5866 5869 5871 5874 5875 5876 5877 5879 5879 5880 5882 5882 5882 5883 5883 5883 5883 5883 5884 5884 5883 5884 5884 5884 5885 5885 5885 5884 5884 5886 5886 5885 5885 5884 5881 5879 5876 5874
5850 5852 5855 5856 5859 5860 5863 5865 5867 5869 5871 5873 5873 5874 5875 5876 5876 5876 5877 5877 5877 5878 5877 5878 5878 5878 5880 5880 5878 5878 5879 5879 5879 5880 5880 5880 5881 5881 5882 5881 5880 5878 5877 5875 5872
5848 5851 5853 5855 5856 5858 5860 5862 5864 5866 5867 5869 5870 5870 5871 5872 5872 5873 5873 5873 5873 5873 5872 5872 5872 5872 5873 5873 5872 5872 5873 5873 5873 5874 5873 5874 5874 5876 5876 5875 5872 5874 5874 5872 5870
5846 5848 5850 5852 5854 5855 5857 5859 5860 5862 5864 5865 5866 5867 5868 5869 5869 5869 5869 5869 5868 5866 5866 5866 5865 5865 5865 5865 5866 5866 5866 5866 5866 5866 5867 5867 5867 5869 5867 5867 5868 5869 5870 5869 5868
5843 5845 5847 5849 5851 5852 5853 5855 5856 5858 5859 5860 5862 5863 5864 5865 5865 5864 5864 5863 5862 5860 5860 5860 5859 5858 5859 5858 5858 5858 5858 5858 5859 5859 5859 5860 5861 5862 5859 5859 5861 5862 5862 5863 5864
5840 5841 5844 5845 5847 5848 5849 5850 5851 5853 5855 5855 5857 5858 5858 5859 5859 5859 5859 5858 5857 5856 5853 5853 5854 5852 5853 5851 5849 5849 5851 5851 5850 5851 5852 5852 5854 5855 5852 5852 5853 5854 5854 5855 5857